Year,Month,Day,Hour,Minute,Value (Times are PST for windgust in km/hr)
2007,02,17,00,00,6.40
2007,02,17,00,01,6.40
2007,02,17,00,02,6.40
2007,02,17,00,03,4.80
2007,02,17,00,04,3.20
2007,02,17,00,05,3.20
2007,02,17,00,06,3.20
2007,02,17,00,07,1.60
2007,02,17,00,08,3.20
2007,02,17,00,09,4.80
2007,02,17,00,10,4.80
2007,02,17,00,11,1.60
2007,02,17,00,12,6.40
2007,02,17,00,13,4.80
2007,02,17,00,14,4.80
2007,02,17,00,15,6.40
2007,02,17,00,16,9.60
2007,02,17,02,03,1.60
2007,02,17,02,04,1.60
2007,02,17,02,05,1.60
2007,02,17,02,06,1.60
2007,02,17,02,07,1.60
2007,02,17,02,08,3.20
2007,02,17,02,09,3.20
2007,02,17,02,10,4.80
2007,02,17,02,11,4.80
2007,02,17,02,12,3.20
2007,02,17,02,13,1.60
2007,02,17,02,14,3.20
2007,02,17,02,15,3.20
2007,02,17,02,16,1.60
2007,02,17,02,17,3.20
2007,02,17,02,18,1.60
2007,02,17,02,19,1.60
2007,02,17,02,20,3.20
2007,02,17,02,21,4.80
2007,02,17,02,22,4.80
2007,02,17,02,23,3.20
2007,02,17,02,24,3.20
2007,02,17,02,25,3.20
2007,02,17,02,26,0.00
2007,02,17,02,27,1.60
2007,02,17,02,28,0.00
2007,02,17,02,29,1.60
2007,02,17,02,30,3.20
2007,02,17,02,31,3.20
2007,02,17,02,32,1.60
2007,02,17,02,33,3.20
2007,02,17,02,34,4.80
2007,02,17,02,35,3.20
2007,02,17,02,36,1.60
2007,02,17,02,37,3.20
2007,02,17,02,38,1.60
2007,02,17,02,39,1.60
2007,02,17,02,40,0.00
2007,02,17,02,41,0.00
2007,02,17,02,42,1.60
2007,02,17,02,43,1.60
2007,02,17,02,44,0.00
2007,02,17,02,45,1.60
2007,02,17,02,46,3.20
2007,02,17,02,47,3.20
2007,02,17,02,48,1.60
2007,02,17,02,49,1.60
2007,02,17,02,50,3.20
2007,02,17,02,51,1.60
2007,02,17,02,52,1.60
2007,02,17,02,53,4.80
2007,02,17,02,54,3.20
2007,02,17,02,55,1.60
2007,02,17,02,56,0.00
2007,02,17,02,57,1.60
2007,02,17,02,58,1.60
2007,02,17,02,59,1.60
2007,02,17,03,00,0.00
2007,02,17,03,01,0.00
2007,02,17,03,02,0.00
2007,02,17,03,03,0.00
2007,02,17,03,04,0.00
2007,02,17,03,05,0.00
2007,02,17,03,06,1.60
2007,02,17,03,07,0.00
2007,02,17,03,08,0.00
2007,02,17,03,09,0.00
2007,02,17,03,10,0.00
2007,02,17,03,11,0.00
2007,02,17,03,12,0.00
2007,02,17,03,13,0.00
2007,02,17,03,14,0.00
2007,02,17,03,15,0.00
2007,02,17,03,16,0.00
2007,02,17,03,17,0.00
2007,02,17,03,18,0.00
2007,02,17,03,19,0.00
2007,02,17,03,20,0.00
2007,02,17,03,21,0.00
2007,02,17,03,22,0.00
2007,02,17,03,23,0.00
2007,02,17,03,24,0.00
2007,02,17,03,25,0.00
2007,02,17,03,26,0.00
2007,02,17,03,27,0.00
2007,02,17,03,28,0.00
2007,02,17,03,29,0.00
2007,02,17,03,30,0.00
2007,02,17,03,31,0.00
2007,02,17,03,32,0.00
2007,02,17,03,33,0.00
2007,02,17,03,34,1.60
2007,02,17,03,35,1.60
2007,02,17,03,36,1.60
2007,02,17,03,37,1.60
2007,02,17,03,38,1.60
2007,02,17,03,39,1.60
2007,02,17,03,40,1.60
2007,02,17,03,41,1.60
2007,02,17,03,42,1.60
2007,02,17,03,43,3.20
2007,02,17,03,44,3.20
2007,02,17,03,45,1.60
2007,02,17,03,46,1.60
2007,02,17,03,47,1.60
2007,02,17,03,48,0.00
2007,02,17,03,49,1.60
2007,02,17,03,50,1.60
2007,02,17,03,51,0.00
2007,02,17,03,52,1.60
2007,02,17,03,53,0.00
2007,02,17,03,54,0.00
2007,02,17,03,55,0.00
2007,02,17,03,56,0.00
2007,02,17,03,57,0.00
2007,02,17,03,58,0.00
2007,02,17,03,59,0.00
2007,02,17,04,00,0.00
2007,02,17,04,01,0.00
2007,02,17,04,02,0.00
2007,02,17,04,03,0.00
2007,02,17,04,04,1.60
2007,02,17,04,05,1.60
2007,02,17,04,06,1.60
2007,02,17,04,07,0.00
2007,02,17,04,08,1.60
2007,02,17,04,09,1.60
2007,02,17,04,10,3.20
2007,02,17,04,11,1.60
2007,02,17,04,12,1.60
2007,02,17,04,13,1.60
2007,02,17,04,14,3.20
2007,02,17,04,15,3.20
2007,02,17,04,16,3.20
2007,02,17,04,17,3.20
2007,02,17,04,18,3.20
2007,02,17,04,19,1.60
2007,02,17,04,20,0.00
2007,02,17,04,21,0.00
2007,02,17,04,22,0.00
2007,02,17,04,23,3.20
2007,02,17,04,24,3.20
2007,02,17,04,25,3.20
2007,02,17,04,26,1.60
2007,02,17,04,27,3.20
2007,02,17,04,28,3.20
2007,02,17,04,29,3.20
2007,02,17,04,30,4.80
2007,02,17,04,31,4.80
2007,02,17,04,32,4.80
2007,02,17,04,33,4.80
2007,02,17,04,34,3.20
2007,02,17,04,35,3.20
2007,02,17,04,36,4.80
2007,02,17,04,37,4.80
2007,02,17,04,38,3.20
2007,02,17,04,39,3.20
2007,02,17,04,40,3.20
2007,02,17,04,41,3.20
2007,02,17,04,42,1.60
2007,02,17,04,43,3.20
2007,02,17,04,44,0.00
2007,02,17,04,45,1.60
2007,02,17,04,46,1.60
2007,02,17,04,47,1.60
2007,02,17,04,48,1.60
2007,02,17,04,49,0.00
2007,02,17,04,50,3.20
2007,02,17,04,51,1.60
2007,02,17,04,52,3.20
2007,02,17,04,53,3.20
2007,02,17,04,54,3.20
2007,02,17,04,55,1.60
2007,02,17,04,56,1.60
2007,02,17,04,57,3.20
2007,02,17,04,58,1.60
2007,02,17,04,59,1.60
2007,02,17,05,00,1.60
2007,02,17,05,01,1.60
2007,02,17,05,02,1.60
2007,02,17,05,03,1.60
2007,02,17,05,04,1.60
2007,02,17,05,05,1.60
2007,02,17,05,06,1.60
2007,02,17,05,07,1.60
2007,02,17,05,08,1.60
2007,02,17,05,09,0.00
2007,02,17,05,10,1.60
2007,02,17,05,11,0.00
2007,02,17,05,12,0.00
2007,02,17,05,13,0.00
2007,02,17,05,14,0.00
2007,02,17,05,15,0.00
2007,02,17,05,16,0.00
2007,02,17,05,17,0.00
2007,02,17,05,18,0.00
2007,02,17,05,19,0.00
2007,02,17,05,20,0.00
2007,02,17,05,21,0.00
2007,02,17,05,22,1.60
2007,02,17,05,23,1.60
2007,02,17,05,24,0.00
2007,02,17,05,25,1.60
2007,02,17,05,26,3.20
2007,02,17,05,27,3.20
2007,02,17,05,28,3.20
2007,02,17,05,29,3.20
2007,02,17,05,30,3.20
2007,02,17,05,31,3.20
2007,02,17,05,32,3.20
2007,02,17,05,33,1.60
2007,02,17,05,34,1.60
2007,02,17,05,35,1.60
2007,02,17,05,36,1.60
2007,02,17,05,37,1.60
2007,02,17,05,38,1.60
2007,02,17,05,39,1.60
2007,02,17,05,40,1.60
2007,02,17,05,41,1.60
2007,02,17,05,42,0.00
2007,02,17,05,43,0.00
2007,02,17,05,44,0.00
2007,02,17,05,45,0.00
2007,02,17,05,46,0.00
2007,02,17,05,47,0.00
2007,02,17,05,48,0.00
2007,02,17,05,49,0.00
2007,02,17,05,50,0.00
2007,02,17,05,51,0.00
2007,02,17,05,52,0.00
2007,02,17,05,53,0.00
2007,02,17,05,54,0.00
2007,02,17,05,55,0.00
2007,02,17,05,56,0.00
2007,02,17,05,57,0.00
2007,02,17,05,58,0.00
2007,02,17,05,59,0.00
2007,02,17,06,00,0.00
2007,02,17,06,01,0.00
2007,02,17,06,02,0.00
2007,02,17,06,03,0.00
2007,02,17,06,04,0.00
2007,02,17,06,05,0.00
2007,02,17,06,06,0.00
2007,02,17,06,07,0.00
2007,02,17,06,08,0.00
2007,02,17,06,09,0.00
2007,02,17,06,10,0.00
2007,02,17,06,11,0.00
2007,02,17,06,12,1.60
2007,02,17,06,13,1.60
2007,02,17,06,14,1.60
2007,02,17,06,15,1.60
2007,02,17,06,16,1.60
2007,02,17,06,17,0.00
2007,02,17,06,18,1.60
2007,02,17,06,19,0.00
2007,02,17,06,20,0.00
2007,02,17,06,21,0.00
2007,02,17,06,22,0.00
2007,02,17,06,23,0.00
2007,02,17,06,24,1.60
2007,02,17,06,25,0.00
2007,02,17,06,26,1.60
2007,02,17,06,27,0.00
2007,02,17,06,28,0.00
2007,02,17,06,29,1.60
2007,02,17,06,30,3.20
2007,02,17,06,31,3.20
2007,02,17,06,32,4.80
2007,02,17,06,33,3.20
2007,02,17,06,34,1.60
2007,02,17,06,35,1.60
2007,02,17,06,36,0.00
2007,02,17,06,37,1.60
2007,02,17,06,38,0.00
2007,02,17,06,39,0.00
2007,02,17,06,40,1.60
2007,02,17,06,41,3.20
2007,02,17,06,42,1.60
2007,02,17,06,43,0.00
2007,02,17,06,44,1.60
2007,02,17,06,45,1.60
2007,02,17,06,46,1.60
2007,02,17,06,47,1.60
2007,02,17,06,48,0.00
2007,02,17,06,49,0.00
2007,02,17,06,50,1.60
2007,02,17,06,51,1.60
2007,02,17,06,52,1.60
2007,02,17,06,53,1.60
2007,02,17,06,54,3.20
2007,02,17,06,55,1.60
2007,02,17,06,56,1.60
2007,02,17,06,57,1.60
2007,02,17,06,58,0.00
2007,02,17,06,59,0.00
2007,02,17,07,00,0.00
2007,02,17,07,01,1.60
2007,02,17,07,02,1.60
2007,02,17,07,03,0.00
2007,02,17,07,04,0.00
2007,02,17,07,05,0.00
2007,02,17,07,06,0.00
2007,02,17,07,07,0.00
2007,02,17,07,08,0.00
2007,02,17,07,09,0.00
2007,02,17,07,10,0.00
2007,02,17,07,11,1.60
2007,02,17,07,12,1.60
2007,02,17,07,13,0.00
2007,02,17,07,14,1.60
2007,02,17,07,15,3.20
2007,02,17,07,16,1.60
2007,02,17,07,17,1.60
2007,02,17,07,18,1.60
2007,02,17,07,19,3.20
2007,02,17,07,20,1.60
2007,02,17,07,21,1.60
2007,02,17,07,22,1.60
2007,02,17,07,23,1.60
2007,02,17,07,24,1.60
2007,02,17,07,25,1.60
2007,02,17,07,26,1.60
2007,02,17,07,27,1.60
2007,02,17,07,28,0.00
2007,02,17,07,29,0.00
2007,02,17,07,30,0.00
2007,02,17,07,31,0.00
2007,02,17,07,32,0.00
2007,02,17,07,33,0.00
2007,02,17,07,34,0.00
2007,02,17,07,35,0.00
2007,02,17,07,36,0.00
2007,02,17,07,37,0.00
2007,02,17,07,38,3.20
2007,02,17,07,39,1.60
2007,02,17,07,40,1.60
2007,02,17,07,41,1.60
2007,02,17,07,42,0.00
2007,02,17,07,43,0.00
2007,02,17,07,44,1.60
2007,02,17,07,45,0.00
2007,02,17,07,46,3.20
2007,02,17,07,47,1.60
2007,02,17,07,48,1.60
2007,02,17,07,49,0.00
2007,02,17,07,50,0.00
2007,02,17,07,51,0.00
2007,02,17,07,52,3.20
2007,02,17,07,53,1.60
2007,02,17,07,54,0.00
2007,02,17,07,55,0.00
2007,02,17,07,56,1.60
2007,02,17,07,57,0.00
2007,02,17,07,58,1.60
2007,02,17,07,59,1.60
2007,02,17,08,00,1.60
2007,02,17,08,01,1.60
2007,02,17,08,02,1.60
2007,02,17,08,03,1.60
2007,02,17,08,04,0.00
2007,02,17,08,05,0.00
2007,02,17,08,06,0.00
2007,02,17,08,07,0.00
2007,02,17,08,08,0.00
2007,02,17,08,09,0.00
2007,02,17,08,10,0.00
2007,02,17,08,11,0.00
2007,02,17,08,12,1.60
2007,02,17,08,13,1.60
2007,02,17,08,14,1.60
2007,02,17,08,15,1.60
2007,02,17,08,16,0.00
2007,02,17,08,17,0.00
2007,02,17,08,18,3.20
2007,02,17,08,19,1.60
2007,02,17,08,20,3.20
2007,02,17,08,21,1.60
2007,02,17,08,22,0.00
2007,02,17,08,23,1.60
2007,02,17,08,24,3.20
2007,02,17,08,25,4.80
2007,02,17,08,26,3.20
2007,02,17,08,27,3.20
2007,02,17,08,28,3.20
2007,02,17,08,29,3.20
2007,02,17,08,30,3.20
2007,02,17,08,31,0.00
2007,02,17,08,32,1.60
2007,02,17,08,33,0.00
2007,02,17,08,34,1.60
2007,02,17,08,35,1.60
2007,02,17,08,36,3.20
2007,02,17,08,37,1.60
2007,02,17,08,38,3.20
2007,02,17,08,39,3.20
2007,02,17,08,40,1.60
2007,02,17,08,41,3.20
2007,02,17,08,42,1.60
2007,02,17,08,43,1.60
2007,02,17,08,44,3.20
2007,02,17,08,45,3.20
2007,02,17,08,46,1.60
2007,02,17,08,47,1.60
2007,02,17,08,48,3.20
2007,02,17,08,49,4.80
2007,02,17,08,50,6.40
2007,02,17,08,51,1.60
2007,02,17,08,52,1.60
2007,02,17,08,53,3.20
2007,02,17,08,54,3.20
2007,02,17,08,55,4.80
2007,02,17,08,56,4.80
2007,02,17,08,57,0.00
2007,02,17,08,58,1.60
2007,02,17,08,59,1.60
2007,02,17,09,00,8.10
2007,02,17,09,01,9.60
2007,02,17,09,02,4.80
2007,02,17,09,03,3.20
2007,02,17,09,04,3.20
2007,02,17,09,05,4.80
2007,02,17,09,06,3.20
2007,02,17,09,07,1.60
2007,02,17,09,08,6.40
2007,02,17,09,09,6.40
2007,02,17,09,10,3.20
2007,02,17,09,11,1.60
2007,02,17,09,12,4.80
2007,02,17,09,13,4.80
2007,02,17,09,14,1.60
2007,02,17,09,15,1.60
2007,02,17,09,16,3.20
2007,02,17,09,17,1.60
2007,02,17,09,18,3.20
2007,02,17,09,19,4.80
2007,02,17,09,20,1.60
2007,02,17,09,21,1.60
2007,02,17,09,22,6.40
2007,02,17,09,23,3.20
2007,02,17,09,24,8.10
2007,02,17,09,25,4.80
2007,02,17,09,26,3.20
2007,02,17,09,27,4.80
2007,02,17,09,28,3.20
2007,02,17,09,29,3.20
2007,02,17,09,30,4.80
2007,02,17,09,31,3.20
2007,02,17,09,32,8.10
2007,02,17,09,33,8.10
2007,02,17,09,34,8.10
2007,02,17,09,35,8.10
2007,02,17,09,36,3.20
2007,02,17,09,37,1.60
2007,02,17,09,38,1.60
2007,02,17,09,39,3.20
2007,02,17,09,40,0.00
2007,02,17,09,41,1.60
2007,02,17,09,42,1.60
2007,02,17,09,43,4.80
2007,02,17,09,44,8.10
2007,02,17,09,45,11.30
2007,02,17,09,46,9.60
2007,02,17,09,47,6.40
2007,02,17,09,48,6.40
2007,02,17,09,49,4.80
2007,02,17,09,50,4.80
2007,02,17,09,51,3.20
2007,02,17,09,52,4.80
2007,02,17,09,53,3.20
2007,02,17,09,54,1.60
2007,02,17,09,55,4.80
2007,02,17,09,56,3.20
2007,02,17,09,57,1.60
2007,02,17,09,58,1.60
2007,02,17,09,59,1.60
2007,02,17,10,00,4.80
2007,02,17,10,01,8.10
2007,02,17,10,02,6.40
2007,02,17,10,03,3.20
2007,02,17,10,04,4.80
2007,02,17,10,05,3.20
2007,02,17,10,06,6.40
2007,02,17,10,07,3.20
2007,02,17,10,08,3.20
2007,02,17,10,09,3.20
2007,02,17,10,10,1.60
2007,02,17,10,11,6.40
2007,02,17,10,12,6.40
2007,02,17,10,13,4.80
2007,02,17,10,14,8.10
2007,02,17,10,15,4.80
2007,02,17,10,16,3.20
2007,02,17,10,17,1.60
2007,02,17,10,18,3.20
2007,02,17,10,19,6.40
2007,02,17,10,20,4.80
2007,02,17,10,21,4.80
2007,02,17,10,22,12.90
2007,02,17,10,23,9.60
2007,02,17,10,24,4.80
2007,02,17,10,25,0.00
2007,02,17,10,26,6.40
2007,02,17,10,27,6.40
2007,02,17,10,28,4.80
2007,02,17,10,29,1.60
2007,02,17,10,30,3.20
2007,02,17,10,31,3.20
2007,02,17,10,32,3.20
2007,02,17,10,33,3.20
2007,02,17,10,34,3.20
2007,02,17,10,35,4.80
2007,02,17,10,36,3.20
2007,02,17,10,37,3.20
2007,02,17,10,38,9.60
2007,02,17,10,39,4.80
2007,02,17,10,40,3.20
2007,02,17,10,41,4.80
2007,02,17,10,42,1.60
2007,02,17,10,43,1.60
2007,02,17,10,44,4.80
2007,02,17,10,45,3.20
2007,02,17,10,46,4.80
2007,02,17,10,47,9.60
2007,02,17,10,48,6.40
2007,02,17,10,49,6.40
2007,02,17,10,50,3.20
2007,02,17,10,51,4.80
2007,02,17,10,52,8.10
2007,02,17,10,53,4.80
2007,02,17,10,54,4.80
2007,02,17,10,55,3.20
2007,02,17,10,56,9.60
2007,02,17,10,57,9.60
2007,02,17,10,58,4.80
2007,02,17,10,59,6.40
2007,02,17,11,00,11.30
2007,02,17,11,01,8.10
2007,02,17,11,02,8.10
2007,02,17,11,03,4.80
2007,02,17,11,04,4.80
2007,02,17,11,05,9.60
2007,02,17,11,06,3.20
2007,02,17,11,07,6.40
2007,02,17,11,08,6.40
2007,02,17,11,09,8.10
2007,02,17,11,10,16.10
2007,02,17,11,11,12.90
2007,02,17,11,12,8.10
2007,02,17,11,13,4.80
2007,02,17,11,14,6.40
2007,02,17,11,15,6.40
2007,02,17,11,16,4.80
2007,02,17,11,17,4.80
2007,02,17,11,18,9.60
2007,02,17,11,19,4.80
2007,02,17,11,20,4.80
2007,02,17,11,21,1.60
2007,02,17,11,22,9.60
2007,02,17,11,23,6.40
2007,02,17,11,24,6.40
2007,02,17,11,25,8.10
2007,02,17,11,26,9.60
2007,02,17,11,27,9.60
2007,02,17,11,28,8.10
2007,02,17,11,29,3.20
2007,02,17,11,30,4.80
2007,02,17,11,31,4.80
2007,02,17,11,32,4.80
2007,02,17,11,33,4.80
2007,02,17,11,34,8.10
2007,02,17,11,35,6.40
2007,02,17,11,36,4.80
2007,02,17,11,37,8.10
2007,02,17,11,38,8.10
2007,02,17,11,39,8.10
2007,02,17,11,40,6.40
2007,02,17,11,41,8.10
2007,02,17,11,42,8.10
2007,02,17,11,43,4.80
2007,02,17,11,44,11.30
2007,02,17,11,45,6.40
2007,02,17,11,46,11.30
2007,02,17,11,47,6.40
2007,02,17,11,48,6.40
2007,02,17,11,49,6.40
2007,02,17,11,50,4.80
2007,02,17,11,51,6.40
2007,02,17,11,52,6.40
2007,02,17,11,53,9.60
2007,02,17,11,54,8.10
2007,02,17,11,55,4.80
2007,02,17,11,56,4.80
2007,02,17,11,57,3.20
2007,02,17,11,58,3.20
2007,02,17,11,59,4.80
2007,02,17,12,00,6.40
2007,02,17,12,01,3.20
2007,02,17,12,02,3.20
2007,02,17,12,03,4.80
2007,02,17,12,04,6.40
2007,02,17,12,05,6.40
2007,02,17,12,06,8.10
2007,02,17,12,07,4.80
2007,02,17,12,08,4.80
2007,02,17,12,09,4.80
2007,02,17,12,10,6.40
2007,02,17,12,11,6.40
2007,02,17,12,12,6.40
2007,02,17,12,13,3.20
2007,02,17,12,14,4.80
2007,02,17,12,15,6.40
2007,02,17,12,16,6.40
2007,02,17,12,17,4.80
2007,02,17,12,18,3.20
2007,02,17,12,19,3.20
2007,02,17,12,20,1.60
2007,02,17,12,21,0.00
2007,02,17,12,22,4.80
2007,02,17,12,23,6.40
2007,02,17,12,24,4.80
2007,02,17,12,25,4.80
2007,02,17,12,26,3.20
2007,02,17,12,27,3.20
2007,02,17,12,28,4.80
2007,02,17,12,29,6.40
2007,02,17,12,30,6.40
2007,02,17,12,31,4.80
2007,02,17,12,32,6.40
2007,02,17,12,33,6.40
2007,02,17,12,34,9.60
2007,02,17,12,35,9.60
2007,02,17,12,36,9.60
2007,02,17,12,37,4.80
2007,02,17,12,38,9.60
2007,02,17,12,39,11.30
2007,02,17,12,40,11.30
2007,02,17,12,41,11.30
2007,02,17,12,42,11.30
2007,02,17,12,43,14.50
2007,02,17,12,44,8.10
2007,02,17,12,45,9.60
2007,02,17,12,46,9.60
2007,02,17,12,47,8.10
2007,02,17,12,48,9.60
2007,02,17,12,49,9.60
2007,02,17,12,50,14.50
2007,02,17,12,51,14.50
2007,02,17,12,52,16.10
2007,02,17,12,53,9.60
2007,02,17,12,54,14.50
2007,02,17,12,55,11.30
2007,02,17,12,56,14.50
2007,02,17,12,57,16.10
2007,02,17,12,58,8.10
2007,02,17,12,59,9.60
2007,02,17,13,00,11.30
2007,02,17,13,01,9.60
2007,02,17,13,02,8.10
2007,02,17,13,03,14.50
2007,02,17,13,04,11.30
2007,02,17,13,05,6.40
2007,02,17,13,06,4.80
2007,02,17,13,07,14.50
2007,02,17,13,08,16.10
2007,02,17,13,09,11.30
2007,02,17,13,10,6.40
2007,02,17,13,11,11.30
2007,02,17,13,12,6.40
2007,02,17,13,13,9.60
2007,02,17,13,14,4.80
2007,02,17,13,15,6.40
2007,02,17,13,16,8.10
2007,02,17,13,17,8.10
2007,02,17,13,18,8.10
2007,02,17,13,19,8.10
2007,02,17,13,20,6.40
2007,02,17,13,21,9.60
2007,02,17,13,22,9.60
2007,02,17,13,23,14.50
2007,02,17,13,24,6.40
2007,02,17,13,25,11.30
2007,02,17,13,26,4.80
2007,02,17,13,27,1.60
2007,02,17,13,28,3.20
2007,02,17,13,29,3.20
2007,02,17,13,30,8.10
2007,02,17,13,31,3.20
2007,02,17,13,32,4.80
2007,02,17,13,33,6.40
2007,02,17,13,34,11.30
2007,02,17,13,35,16.10
2007,02,17,13,36,16.10
2007,02,17,13,37,9.60
2007,02,17,13,38,16.10
2007,02,17,13,39,8.10
2007,02,17,13,40,4.80
2007,02,17,13,41,16.10
2007,02,17,13,42,16.10
2007,02,17,13,43,14.50
2007,02,17,13,44,11.30
2007,02,17,13,45,8.10
2007,02,17,13,46,8.10
2007,02,17,13,47,9.60
2007,02,17,13,48,8.10
2007,02,17,13,49,8.10
2007,02,17,13,50,8.10
2007,02,17,13,51,8.10
2007,02,17,13,52,4.80
2007,02,17,13,53,11.30
2007,02,17,13,54,9.60
2007,02,17,13,55,9.60
2007,02,17,13,56,8.10
2007,02,17,13,57,6.40
2007,02,17,13,58,9.60
2007,02,17,13,59,4.80
2007,02,17,14,00,6.40
2007,02,17,14,01,3.20
2007,02,17,14,02,8.10
2007,02,17,14,03,4.80
2007,02,17,14,04,4.80
2007,02,17,14,05,6.40
2007,02,17,14,06,4.80
2007,02,17,14,07,6.40
2007,02,17,14,08,6.40
2007,02,17,14,09,4.80
2007,02,17,14,10,3.20
2007,02,17,14,11,8.10
2007,02,17,14,12,8.10
2007,02,17,14,13,6.40
2007,02,17,14,14,3.20
2007,02,17,14,15,3.20
2007,02,17,14,16,0.00
2007,02,17,14,17,3.20
2007,02,17,14,18,3.20
2007,02,17,14,19,3.20
2007,02,17,14,20,3.20
2007,02,17,14,21,3.20
2007,02,17,14,22,4.80
2007,02,17,14,23,8.10
2007,02,17,14,24,9.60
2007,02,17,14,25,14.50
2007,02,17,14,26,9.60
2007,02,17,14,27,16.10
2007,02,17,14,28,14.50
2007,02,17,14,29,14.50
2007,02,17,14,30,9.60
2007,02,17,14,31,8.10
2007,02,17,14,32,11.30
2007,02,17,14,33,17.70
2007,02,17,14,34,17.70
2007,02,17,14,35,16.10
2007,02,17,14,36,11.30
2007,02,17,14,37,9.60
2007,02,17,14,38,11.30
2007,02,17,14,39,9.60
2007,02,17,14,40,9.60
2007,02,17,14,41,6.40
2007,02,17,14,42,6.40
2007,02,17,14,43,9.60
2007,02,17,14,44,8.10
2007,02,17,14,45,9.60
2007,02,17,14,46,16.10
2007,02,17,14,47,8.10
2007,02,17,14,48,6.40
2007,02,17,14,49,8.10
2007,02,17,14,50,8.10
2007,02,17,14,51,8.10
2007,02,17,14,52,4.80
2007,02,17,14,53,6.40
2007,02,17,14,54,3.20
2007,02,17,14,55,1.60
2007,02,17,14,56,1.60
2007,02,17,14,57,6.40
2007,02,17,14,58,6.40
2007,02,17,14,59,6.40
2007,02,17,15,00,8.10
2007,02,17,15,01,9.60
2007,02,17,15,02,6.40
2007,02,17,15,03,8.10
2007,02,17,15,04,8.10
2007,02,17,15,05,8.10
2007,02,17,15,06,8.10
2007,02,17,15,07,4.80
2007,02,17,15,08,8.10
2007,02,17,15,09,6.40
2007,02,17,15,10,6.40
2007,02,17,15,11,6.40
2007,02,17,15,12,3.20
2007,02,17,15,13,3.20
2007,02,17,15,14,1.60
2007,02,17,15,15,3.20
2007,02,17,15,16,6.40
2007,02,17,15,17,4.80
2007,02,17,15,18,4.80
2007,02,17,15,19,4.80
2007,02,17,15,20,3.20
2007,02,17,15,21,3.20
2007,02,17,15,22,3.20
2007,02,17,15,23,4.80
2007,02,17,15,24,4.80
2007,02,17,15,25,3.20
2007,02,17,15,26,1.60
2007,02,17,15,27,1.60
2007,02,17,15,28,6.40
2007,02,17,15,29,8.10
2007,02,17,15,30,8.10
2007,02,17,15,31,8.10
2007,02,17,15,32,6.40
2007,02,17,15,33,3.20
2007,02,17,15,34,4.80
2007,02,17,15,35,3.20
2007,02,17,15,36,4.80
2007,02,17,15,37,4.80
2007,02,17,15,38,4.80
2007,02,17,15,39,3.20
2007,02,17,15,40,1.60
2007,02,17,15,41,0.00
2007,02,17,15,42,4.80
2007,02,17,15,43,3.20
2007,02,17,15,44,4.80
2007,02,17,15,45,6.40
2007,02,17,15,46,4.80
2007,02,17,15,47,6.40
2007,02,17,15,48,3.20
2007,02,17,15,49,3.20
2007,02,17,15,50,1.60
2007,02,17,15,51,3.20
2007,02,17,15,52,3.20
2007,02,17,15,53,3.20
2007,02,17,15,54,4.80
2007,02,17,15,55,3.20
2007,02,17,15,56,1.60
2007,02,17,15,57,1.60
2007,02,17,15,58,3.20
2007,02,17,15,59,3.20
2007,02,17,16,00,4.80
2007,02,17,16,01,4.80
2007,02,17,16,02,3.20
2007,02,17,16,03,3.20
2007,02,17,16,04,3.20
2007,02,17,16,05,8.10
2007,02,17,16,06,8.10
2007,02,17,16,07,4.80
2007,02,17,16,08,6.40
2007,02,17,16,09,8.10
2007,02,17,16,10,8.10
2007,02,17,16,11,6.40
2007,02,17,16,12,6.40
2007,02,17,16,13,6.40
2007,02,17,16,14,9.60
2007,02,17,16,15,6.40
2007,02,17,16,16,6.40
2007,02,17,16,17,6.40
2007,02,17,16,18,4.80
2007,02,17,16,19,6.40
2007,02,17,16,20,6.40
2007,02,17,16,21,4.80
2007,02,17,16,22,3.20
2007,02,17,16,23,3.20
2007,02,17,16,24,6.40
2007,02,17,16,25,4.80
2007,02,17,16,26,9.60
2007,02,17,16,27,16.10
2007,02,17,16,28,9.60
2007,02,17,16,29,6.40
2007,02,17,16,30,11.30
2007,02,17,16,31,8.10
2007,02,17,16,32,8.10
2007,02,17,16,33,20.90
2007,02,17,16,34,29.00
2007,02,17,16,35,24.20
2007,02,17,16,36,29.00
2007,02,17,16,37,19.30
2007,02,17,16,38,25.70
2007,02,17,16,39,25.70
2007,02,17,16,40,17.70
2007,02,17,16,41,29.00
2007,02,17,16,42,25.70
2007,02,17,16,43,40.20
2007,02,17,16,44,35.40
2007,02,17,16,45,35.40
2007,02,17,16,46,33.80
2007,02,17,16,47,40.20
2007,02,17,16,48,40.20
2007,02,17,16,49,29.00
2007,02,17,16,50,29.00
2007,02,17,16,51,33.80
2007,02,17,16,52,43.50
2007,02,17,16,53,29.00
2007,02,17,16,54,32.20
2007,02,17,16,55,27.40
2007,02,17,16,56,35.40
2007,02,17,16,57,30.60
2007,02,17,16,58,24.20
2007,02,17,16,59,22.50
2007,02,17,17,00,33.80
2007,02,17,17,01,38.60
2007,02,17,17,02,40.20
2007,02,17,17,03,32.20
2007,02,17,17,04,30.60
2007,02,17,17,05,40.20
2007,02,17,17,06,38.60
2007,02,17,17,07,30.60
2007,02,17,17,08,33.80
2007,02,17,17,09,43.50
2007,02,17,17,10,24.20
2007,02,17,17,11,33.80
2007,02,17,17,12,27.40
2007,02,17,17,13,38.60
2007,02,17,17,14,37.00
2007,02,17,17,15,37.00
2007,02,17,17,16,32.20
2007,02,17,17,17,19.30
2007,02,17,17,18,41.80
2007,02,17,17,19,38.60
2007,02,17,17,20,37.00
2007,02,17,17,21,30.60
2007,02,17,17,22,24.20
2007,02,17,17,23,24.20
2007,02,17,17,24,35.40
2007,02,17,17,25,38.60
2007,02,17,17,26,27.40
2007,02,17,17,27,24.20
2007,02,17,17,28,19.30
2007,02,17,17,29,32.20
2007,02,17,17,30,29.00
2007,02,17,17,31,29.00
2007,02,17,17,32,40.20
2007,02,17,17,33,19.30
2007,02,17,17,34,25.70
2007,02,17,17,35,30.60
2007,02,17,17,36,30.60
2007,02,17,17,37,43.50
2007,02,17,17,38,38.60
2007,02,17,17,39,45.10
2007,02,17,17,40,38.60
2007,02,17,17,41,41.80
2007,02,17,17,42,46.70
2007,02,17,17,43,49.90
2007,02,17,17,44,53.10
2007,02,17,17,45,40.20
2007,02,17,17,46,33.80
2007,02,17,17,47,46.70
2007,02,17,17,48,24.20
2007,02,17,17,49,32.20
2007,02,17,17,50,33.80
2007,02,17,17,51,37.00
2007,02,17,17,52,40.20
2007,02,17,17,53,32.20
2007,02,17,17,54,38.60
2007,02,17,17,55,30.60
2007,02,17,17,56,22.50
2007,02,17,17,57,38.60
2007,02,17,17,58,40.20
2007,02,17,17,59,43.50
2007,02,17,18,00,48.30
2007,02,17,18,01,33.80
2007,02,17,18,02,32.20
2007,02,17,18,03,35.40
2007,02,17,18,04,19.30
2007,02,17,18,05,25.70
2007,02,17,18,06,24.20
2007,02,17,18,07,30.60
2007,02,17,18,08,32.20
2007,02,17,18,09,27.40
2007,02,17,18,10,25.70
2007,02,17,18,11,38.60
2007,02,17,18,12,51.50
2007,02,17,18,13,46.70
2007,02,17,18,14,35.40
2007,02,17,18,15,27.40
2007,02,17,18,16,37.00
2007,02,17,18,17,29.00
2007,02,17,18,18,25.70
2007,02,17,18,19,30.60
2007,02,17,18,20,25.70
2007,02,17,18,21,22.50
2007,02,17,18,22,20.90
2007,02,17,18,23,33.80
2007,02,17,18,24,19.30
2007,02,17,18,25,30.60
2007,02,17,18,26,22.50
2007,02,17,18,27,24.20
2007,02,17,18,28,25.70
2007,02,17,18,29,32.20
2007,02,17,18,30,24.20
2007,02,17,18,31,25.70
2007,02,17,18,32,16.10
2007,02,17,18,33,11.30
2007,02,17,18,34,11.30
2007,02,17,18,35,19.30
2007,02,17,18,36,22.50
2007,02,17,18,37,16.10
2007,02,17,18,38,12.90
2007,02,17,18,39,14.50
2007,02,17,18,40,17.70
2007,02,17,18,41,11.30
2007,02,17,18,42,17.70
2007,02,17,18,43,11.30
2007,02,17,18,44,11.30
2007,02,17,18,45,19.30
2007,02,17,18,46,17.70
2007,02,17,18,47,16.10
2007,02,17,18,48,17.70
2007,02,17,18,49,16.10
2007,02,17,18,50,9.60
2007,02,17,18,51,9.60
2007,02,17,18,52,20.90
2007,02,17,18,53,16.10
2007,02,17,18,54,11.30
2007,02,17,18,55,8.10
2007,02,17,18,56,11.30
2007,02,17,18,57,17.70
2007,02,17,18,58,17.70
2007,02,17,18,59,6.40
2007,02,17,19,00,11.30
2007,02,17,19,01,16.10
2007,02,17,19,02,14.50
2007,02,17,19,03,8.10
2007,02,17,19,04,14.50
2007,02,17,19,05,9.60
2007,02,17,19,06,8.10
2007,02,17,19,07,17.70
2007,02,17,19,08,16.10
2007,02,17,19,09,8.10
2007,02,17,19,10,14.50
2007,02,17,19,11,14.50
2007,02,17,19,12,14.50
2007,02,17,19,13,16.10
2007,02,17,19,14,14.50
2007,02,17,19,15,8.10
2007,02,17,19,16,11.30
2007,02,17,19,17,14.50
2007,02,17,19,18,16.10
2007,02,17,19,19,11.30
2007,02,17,19,20,17.70
2007,02,17,19,21,8.10
2007,02,17,19,22,9.60
2007,02,17,19,23,9.60
2007,02,17,19,24,11.30
2007,02,17,19,25,17.70
2007,02,17,19,26,14.50
2007,02,17,19,27,8.10
2007,02,17,19,28,8.10
2007,02,17,19,29,14.50
2007,02,17,19,30,17.70
2007,02,17,19,31,12.90
2007,02,17,19,32,14.50
2007,02,17,19,33,8.10
2007,02,17,19,34,8.10
2007,02,17,19,35,8.10
2007,02,17,19,36,6.40
2007,02,17,19,37,9.60
2007,02,17,19,38,9.60
2007,02,17,19,39,19.30
2007,02,17,19,40,8.10
2007,02,17,19,41,14.50
2007,02,17,19,42,9.60